Date String (YYYY-MM-DD hh:mm:ss) UTC,Instrument flags,Ambient pressure (hPa),Sample flow (lpm),Bypass flow (lpm),Sample temperature (°C),Ambient temperature (°C),ASC tube jacket temperature (°C),LED temperature (°C),Box temperature (°C),Sample RH (%),Span deviation,Mass concentration (μg/m³),Mass concentration (μg/m³),Mass concentration (μg/m³)
DateTimeUTC,F1_M11,P_M11,Q1_M11,Q2_M11,T1_M11,T2_M11,T3_M11,T4_M11,T5_M11,U1_M11,ZSPAN_M11,X0_M11,X2_M11,X1_M11
2023-01-18 13:00:00,,0813.9,4.99,0.00,22.3,22.2,00.0,31.0,24.3,15.0,0000.0,0003.54,0003.27,0003.25
2023-01-18 13:01:00,,0813.9,5.01,0.00,22.3,21.8,00.0,31.0,24.2,15.0,0000.0,0003.56,0003.28,0003.27
2023-01-18 13:02:00,,0813.9,5.01,0.00,22.3,21.4,00.0,31.0,24.1,15.0,0000.0,0003.58,0003.29,0003.27
2023-01-18 13:03:00,,0813.9,4.99,0.00,22.3,21.2,00.0,31.0,24.1,15.0,0000.0,0003.62,0003.31,0003.28
2023-01-18 13:04:00,,0813.9,5.00,0.00,22.3,20.9,00.0,31.1,24.0,15.0,0000.0,0003.67,0003.33,0003.30
2023-01-18 13:05:00,,0814.1,5.01,0.00,22.3,20.7,00.0,31.0,23.9,15.1,0000.0,0003.80,0003.35,0003.31
2023-01-18 13:06:00,,0814.0,5.00,0.00,22.2,20.5,00.0,31.0,23.9,15.1,0000.0,0004.06,0003.36,0003.32
2023-01-18 13:07:00,,0813.8,4.99,0.00,22.2,20.4,00.0,31.0,23.9,15.1,0000.0,0005.33,0003.39,0003.33
2023-01-18 13:08:00,,0814.0,5.00,0.00,22.2,20.4,00.0,31.0,23.8,15.1,0000.0,0005.91,0003.39,0003.33
2023-01-18 13:09:00,,0814.2,5.00,0.00,22.2,20.3,00.0,31.0,23.8,15.2,0000.0,0005.90,0003.42,0003.34
2023-01-18 13:10:00,,0814.5,5.00,0.00,22.1,20.3,00.0,31.0,23.7,15.2,0000.0,0006.16,0003.45,0003.35
2023-01-18 13:11:00,,0814.3,5.01,0.00,22.1,20.2,00.0,31.0,23.7,15.2,0000.0,0006.22,0003.46,0003.36
2023-01-18 13:12:00,,0814.3,5.01,0.00,22.1,20.2,00.0,31.0,23.7,15.2,0000.0,0006.47,0003.49,0003.37
2023-01-18 13:13:00,,0814.2,5.01,0.00,22.0,20.1,00.0,30.9,23.7,15.2,0000.0,0006.70,0003.54,0003.38
2023-01-18 13:14:00,,0814.1,5.01,0.00,22.0,20.1,00.0,30.9,23.6,15.3,0000.0,0006.87,0003.57,0003.39
2023-01-18 13:15:00,,0814.0,5.00,0.00,22.0,20.2,00.0,30.9,23.7,15.3,0000.0,0006.89,0003.57,0003.39
2023-01-18 13:16:00,,0814.1,5.00,0.00,22.1,21.2,00.0,30.9,23.9,15.2,0000.0,0006.84,0003.56,0003.39
2023-01-18 13:17:00,,0814.1,4.98,0.00,22.2,22.3,00.0,30.9,24.1,15.2,0000.0,0006.83,0003.59,0003.39
2023-01-18 13:18:00,,0814.0,4.99,0.00,22.3,22.7,00.0,30.9,24.3,15.1,0000.0,0005.84,0003.58,0003.40
2023-01-18 13:19:00,,0814.0,4.99,0.00,22.3,22.2,00.0,30.9,24.2,15.0,0000.0,0005.30,0003.58,0003.39
2023-01-18 13:20:00,,0814.0,5.01,0.00,22.3,21.7,00.0,31.0,24.1,15.0,0000.0,0005.24,0003.56,0003.38
2023-01-18 13:21:00,,0814.0,5.01,0.00,22.3,21.4,00.0,31.0,24.1,15.0,0000.0,0005.24,0003.53,0003.37
2023-01-18 13:22:00,,0814.0,5.00,0.00,22.3,21.1,00.0,31.0,24.0,15.0,0000.0,0005.27,0003.53,0003.36
2023-01-18 13:23:00,,0814.0,5.01,0.00,22.3,20.9,00.0,31.0,24.0,15.0,0000.0,0005.18,0003.50,0003.34
2023-01-18 13:24:00,,0814.0,5.00,0.00,22.2,20.7,00.0,31.0,23.9,15.0,0000.0,0005.94,0003.45,0003.31
2023-01-18 13:25:00,,0814.0,5.00,0.00,22.2,20.6,00.0,31.0,23.9,15.0,0000.0,0006.51,0003.39,0003.28
2023-01-18 13:26:00,,0814.0,5.04,0.00,22.2,20.5,00.0,31.0,23.8,15.0,0000.0,0006.42,0003.36,0003.26
2023-01-18 13:27:00,,0814.0,5.00,0.00,22.1,20.4,00.0,31.0,23.8,15.1,0000.0,0006.34,0003.33,0003.23
2023-01-18 13:28:00,,0814.0,4.98,0.00,22.1,20.3,00.0,31.0,23.7,15.1,0000.0,0006.20,0003.29,0003.20
2023-01-18 13:29:00,,0814.1,4.97,0.00,22.1,20.2,00.0,31.0,23.7,15.1,0000.0,0005.97,0003.25,0003.16
2023-01-18 13:30:00,,0814.3,5.00,0.00,22.1,20.2,00.0,30.9,23.7,15.1,0000.0,0005.45,0003.21,0003.13
2023-01-18 13:31:00,,0814.1,4.99,0.00,22.0,20.1,00.0,30.9,23.7,15.1,0000.0,0005.37,0003.18,0003.10
2023-01-18 13:32:00,,0814.0,5.01,0.00,22.0,20.1,00.0,30.9,23.7,15.1,0000.0,0005.09,0003.15,0003.06
2023-01-18 13:33:00,,0814.1,5.00,0.00,22.0,20.3,00.0,30.9,23.7,15.1,0000.0,0004.88,0003.10,0003.02
2023-01-18 13:34:00,,0814.0,5.01,0.00,22.1,21.1,00.0,30.9,23.9,15.1,0000.0,0004.72,0003.05,0002.97
2023-01-18 13:35:00,,0814.1,5.00,0.00,22.2,22.2,00.0,30.9,24.1,15.0,0000.0,0003.83,0002.98,0002.93
2023-01-18 13:36:00,,0814.1,5.00,0.00,22.3,22.8,00.0,30.9,24.3,14.9,0000.0,0002.73,0002.95,0002.91
2023-01-18 13:37:00,,0814.0,4.97,0.00,22.3,22.4,00.0,30.9,24.3,14.9,0000.0,0002.69,0002.92,0002.88
2023-01-18 13:38:00,,0814.1,5.00,0.00,22.3,21.9,00.0,31.0,24.2,14.8,0000.0,0002.66,0002.90,0002.86
2023-01-18 13:39:00,,0814.2,5.02,0.00,22.3,21.6,00.0,31.0,24.1,14.8,0000.0,0002.60,0002.88,0002.84
2023-01-18 13:40:00,,0814.0,4.99,0.00,22.3,21.3,00.0,31.0,24.1,14.8,0000.0,0002.57,0002.85,0002.82
2023-01-18 13:41:00,,0814.0,4.98,0.00,22.3,21.1,00.0,31.0,24.1,14.8,0000.0,0002.56,0002.84,0002.80
2023-01-18 13:42:00,,0814.0,5.00,0.00,22.3,20.9,00.0,31.0,24.0,14.8,0000.0,0002.55,0002.83,0002.79
2023-01-18 13:43:00,,0814.0,5.01,0.00,22.3,20.8,00.0,31.0,24.0,14.8,0000.0,0002.50,0002.80,0002.77
2023-01-18 13:44:00,,0814.0,5.00,0.00,22.3,20.7,00.0,31.0,24.0,14.8,0000.0,0002.47,0002.78,0002.75
2023-01-18 13:45:00,,0814.1,5.00,0.00,22.3,20.7,00.0,31.0,24.0,14.8,0000.0,0002.46,0002.77,0002.74
2023-01-18 13:46:00,,0814.0,4.99,0.00,22.2,20.6,00.0,31.0,23.9,14.8,0000.0,0002.44,0002.77,0002.74
2023-01-18 13:47:00,,0814.0,4.99,0.00,22.2,20.6,00.0,31.0,23.9,14.8,0000.0,0002.42,0002.75,0002.72
2023-01-18 13:48:00,,0814.1,4.99,0.00,22.2,20.5,00.0,31.0,23.9,14.8,0000.0,0002.42,0002.76,0002.73
2023-01-18 13:49:00,,0814.2,5.00,0.00,22.2,20.9,00.0,31.0,23.9,14.8,0000.0,0002.43,0002.77,0002.75
2023-01-18 13:50:00,,0814.1,5.00,0.00,22.3,22.1,00.0,31.0,24.2,14.7,0000.0,0002.41,0002.77,0002.76
2023-01-18 13:51:00,,0814.4,5.00,0.00,22.4,22.9,00.0,31.0,24.4,14.7,0000.0,0002.40,0002.77,0002.77
2023-01-18 13:52:00,,0814.4,4.97,0.00,22.5,22.8,00.0,31.0,24.5,14.6,0000.0,0002.41,0002.79,0002.78
2023-01-18 13:53:00,,0814.2,4.99,0.00,22.5,22.3,00.0,31.1,24.4,14.6,0000.0,0002.40,0002.80,0002.79
2023-01-18 13:54:00,,0814.2,5.01,0.00,22.5,21.9,00.0,31.1,24.4,14.5,0000.0,0002.41,0002.81,0002.81
2023-01-18 13:55:00,,0814.1,5.01,0.00,22.5,21.6,00.0,31.1,24.3,14.5,0000.0,0002.44,0002.84,0002.83
2023-01-18 13:56:00,,0814.1,4.99,0.00,22.5,21.4,00.0,31.1,24.2,14.5,0000.0,0002.47,0002.86,0002.85
2023-01-18 13:57:00,,0814.1,4.99,0.00,22.5,21.2,00.0,31.2,24.2,14.6,0000.0,0002.49,0002.88,0002.88
2023-01-18 13:58:00,,0814.1,4.99,0.00,22.5,21.0,00.0,31.1,24.2,14.6,0000.0,0002.51,0002.91,0002.90
2023-01-18 13:59:00,,0814.2,4.99,0.00,22.4,20.9,00.0,31.2,24.1,14.6,0000.0,0002.54,0002.92,0002.91
